ARABSAT-7B (BADR-8)

Last updated on Fri Oct 24 2025 00:02:52 GMT+0000 (Coordinated Universal Time)

1 56757U 23075A 25296.19702756 .00000156 00000+0 00000+0 0 9998 2 56757 0.0764 30.2299 0001975 314.0152 144.5767 1.00272090 8746
UTC large
Height (km)
Speed (km/s)
/
Latitude / Longitude
Inclination (degrees)
Orbital Period (minutes)
Azimuth
Elevation
Range (km)
Doppler Factor

Next 0 passes for location: London (51.5072 / 0.1276)

Sorry there are no passes over London.